• în România
  • Lista ţărilor
  • Pe 7 zile
  • Temperatura apei
  • Hartă satelitară
  • Meteo pe hartă
  • Widget-uri
  • user-avatar
    Intrare

    Meteo pe oră la Ahtopol

    Astăzi, 25 Februarie, Duminică

    Timp Temperatura Precipitaţii Vânt Presiune Umiditate
    00:00 +1°C° 0,3 mm 6 m/s 756 mmHg 89%
    01:00 -1°C° 0,3 mm 7 m/s 757 mmHg 89%
    02:00 -1°C° 0 mm 6 m/s 757 mmHg 88%
    03:00 -2°C° 0 mm 7 m/s 757 mmHg 88%
    04:00 -2°C° 0 mm 7 m/s 758 mmHg 87%
    05:00 -3°C° 0 mm 7 m/s 758 mmHg 87%
    06:00 -4°C° 0 mm 7 m/s 758 mmHg 86%
    07:00 -4°C° 0 mm 7 m/s 759 mmHg 84%
    08:00 -5°C° 0 mm 6 m/s 759 mmHg 83%
    09:00 -4°C° 0 mm 6 m/s 760 mmHg 79%
    10:00 -3°C° 0 mm 6 m/s 760 mmHg 75%
    11:00 -1°C° 0 mm 5 m/s 760 mmHg 72%
    12:00 -1°C° 0 mm 5 m/s 760 mmHg 71%
    13:00 0°C° 0 mm 5 m/s 760 mmHg 71%
    14:00 0°C° 0 mm 5 m/s 760 mmHg 71%
    15:00 0°C° 0,1 mm 5 m/s 760 mmHg 74%
    16:00 -1°C° 0,1 mm 5 m/s 760 mmHg 77%
    17:00 -2°C° 0,1 mm 6 m/s 760 mmHg 80%
    18:00 -2°C° 0,1 mm 6 m/s 760 mmHg 82%
    19:00 -2°C° 0,1 mm 6 m/s 760 mmHg 85%
    20:00 -3°C° 0,1 mm 6 m/s 760 mmHg 87%
    21:00 -2°C° 0,2 mm 6 m/s 760 mmHg 88%
    22:00 -2°C° 0,2 mm 6 m/s 760 mmHg 88%
    23:00 -2°C° 0,2 mm 6 m/s 760 mmHg 89%

    Mâine, 26 Februarie, Luni

    Timp Temperatura Precipitaţii Vânt Presiune Umiditate
    00:00 -2°C° 0,3 mm 7 m/s 759 mmHg 89%
    01:00 -1°C° 0,3 mm 7 m/s 759 mmHg 90%
    02:00 -1°C° 0,3 mm 8 m/s 758 mmHg 90%
    03:00 -1°C° 0,4 mm 8 m/s 758 mmHg 90%
    04:00 -1°C° 0,4 mm 9 m/s 758 mmHg 90%
    05:00 -1°C° 0,4 mm 9 m/s 757 mmHg 90%
    06:00 -2°C° 0,5 mm 10 m/s 757 mmHg 90%
    07:00 -2°C° 0,5 mm 11 m/s 756 mmHg 90%
    08:00 -2°C° 0,5 mm 11 m/s 756 mmHg 90%
    09:00 -2°C° 0,6 mm 12 m/s 756 mmHg 90%
    10:00 -2°C° 0,6 mm 12 m/s 755 mmHg 90%
    11:00 -2°C° 0,6 mm 12 m/s 755 mmHg 91%
    12:00 -2°C° 0,9 mm 12 m/s 754 mmHg 91%
    13:00 -2°C° 0,9 mm 13 m/s 753 mmHg 91%
    14:00 -2°C° 0,9 mm 13 m/s 752 mmHg 92%
    15:00 -2°C° 1,5 mm 13 m/s 752 mmHg 92%
    16:00 -2°C° 1,5 mm 13 m/s 751 mmHg 93%
    17:00 -2°C° 1,5 mm 13 m/s 750 mmHg 93%
    18:00 -2°C° 2,7 mm 13 m/s 750 mmHg 94%
    19:00 -2°C° 2,7 mm 12 m/s 750 mmHg 94%
    20:00 -2°C° 2,7 mm 12 m/s 750 mmHg 94%
    21:00 -3°C° 2 mm 12 m/s 750 mmHg 94%
    22:00 -3°C° 2 mm 12 m/s 750 mmHg 94%
    23:00 -3°C° 2 mm 12 m/s 750 mmHg 94%

    Poimâine, 27 Februarie, Marţi

    Timp Temperatura Precipitaţii Vânt Presiune Umiditate
    00:00 -5°C° 0,7 mm 12 m/s 750 mmHg 93%
    01:00 -5°C° 0,7 mm 12 m/s 750 mmHg 93%
    02:00 -6°C° 0,7 mm 12 m/s 750 mmHg 92%
    03:00 -7°C° 0,6 mm 11 m/s 750 mmHg 92%
    04:00 -8°C° 0,6 mm 11 m/s 751 mmHg 92%
    05:00 -8°C° 0,6 mm 10 m/s 751 mmHg 92%
    06:00 -9°C° 0,2 mm 9 m/s 752 mmHg 92%
    07:00 -8°C° 0,2 mm 8 m/s 753 mmHg 92%
    08:00 -9°C° 0,2 mm 7 m/s 754 mmHg 92%
    09:00 -8°C° 0,1 mm 6 m/s 754 mmHg 91%
    10:00 -8°C° 0,1 mm 6 m/s 755 mmHg 91%
    11:00 -7°C° 0,1 mm 5 m/s 756 mmHg 91%
    12:00 -6°C° 0 mm 5 m/s 756 mmHg 91%
    13:00 -4°C° 0 mm 4 m/s 756 mmHg 90%
    14:00 -4°C° 0 mm 4 m/s 757 mmHg 90%
    15:00 -4°C° 0 mm 4 m/s 757 mmHg 91%
    16:00 -4°C° 0 mm 4 m/s 757 mmHg 92%
    17:00 -5°C° 0 mm 3 m/s 758 mmHg 93%
    18:00 -6°C° 0 mm 3 m/s 758 mmHg 93%
    19:00 -7°C° 0 mm 3 m/s 759 mmHg 94%
    20:00 -8°C° 0 mm 3 m/s 760 mmHg 94%
    21:00 -8°C° 0 mm 3 m/s 760 mmHg 94%
    22:00 -8°C° 0 mm 3 m/s 760 mmHg 95%
    23:00 -8°C° 0 mm 3 m/s 761 mmHg 95%

    28 Februarie, Miercuri

    Timp Temperatura Precipitaţii Vânt Presiune Umiditate
    00:00 -8°C° 0 mm 3 m/s 761 mmHg 95%
    01:00 -8°C° 0 mm 4 m/s 761 mmHg 95%
    02:00 -8°C° 0 mm 4 m/s 761 mmHg 95%
    03:00 -8°C° 0,1 mm 5 m/s 760 mmHg 95%
    04:00 -8°C° 0,1 mm 5 m/s 760 mmHg 95%
    05:00 -9°C° 0,1 mm 6 m/s 759 mmHg 95%
    06:00 -8°C° 0,9 mm 7 m/s 758 mmHg 95%
    07:00 -8°C° 0,9 mm 8 m/s 758 mmHg 96%
    08:00 -8°C° 0,9 mm 8 m/s 757 mmHg 96%
    09:00 -8°C° 2 mm 9 m/s 756 mmHg 96%
    10:00 -6°C° 2 mm 9 m/s 755 mmHg 97%
    11:00 -5°C° 2 mm 10 m/s 754 mmHg 97%
    12:00 -5°C° 1,6 mm 10 m/s 754 mmHg 96%
    13:00 -7°C° 1,6 mm 10 m/s 753 mmHg 95%
    14:00 -6°C° 1,6 mm 9 m/s 753 mmHg 94%
    15:00 -8°C° 0,6 mm 10 m/s 753 mmHg 93%
    16:00 -9°C° 0,6 mm 10 m/s 754 mmHg 93%
    17:00 -11°C° 0,6 mm 11 m/s 754 mmHg 92%
    18:00 -12°C° 0,4 mm 11 m/s 755 mmHg 92%
    19:00 -12°C° 0,4 mm 10 m/s 756 mmHg 92%
    20:00 -13°C° 0,4 mm 10 m/s 757 mmHg 91%
    21:00 -13°C° 0,1 mm 10 m/s 758 mmHg 91%
    22:00 -12°C° 0,1 mm 9 m/s 759 mmHg 90%
    23:00 -12°C° 0,1 mm 9 m/s 760 mmHg 90%

    1 Martie, Joi

    Timp Temperatura Precipitaţii Vânt Presiune Umiditate
    00:00 -13°C° 0 mm 8 m/s 761 mmHg 90%
    01:00 -13°C° 0 mm 7 m/s 762 mmHg 91%
    02:00 -14°C° 0 mm 7 m/s 762 mmHg 91%
    03:00 -15°C° 0 mm 6 m/s 763 mmHg 91%
    04:00 -14°C° 0 mm 5 m/s 763 mmHg 91%
    05:00 -15°C° 0 mm 5 m/s 763 mmHg 91%
    06:00 -15°C° 0 mm 4 m/s 764 mmHg 91%
    07:00 -15°C° 0 mm 4 m/s 764 mmHg 90%
    08:00 -14°C° 0 mm 4 m/s 765 mmHg 89%
    09:00 -11°C° 0 mm 4 m/s 765 mmHg 87%
    10:00 -9°C° 0 mm 4 m/s 765 mmHg 85%
    11:00 -5°C° 0 mm 4 m/s 765 mmHg 84%
    12:00 -4°C° 0 mm 4 m/s 764 mmHg 83%
    13:00 -4°C° 0 mm 4 m/s 764 mmHg 83%
    14:00 -3°C° 0 mm 4 m/s 763 mmHg 83%
    15:00 -2°C° 0 mm 3 m/s 763 mmHg 85%
    16:00 -4°C° 0 mm 3 m/s 763 mmHg 87%
    17:00 -3°C° 0 mm 2 m/s 763 mmHg 88%
    18:00 -5°C° 0 mm 2 m/s 763 mmHg 88%
    19:00 -6°C° 0 mm 2 m/s 764 mmHg 87%
    20:00 -7°C° 0 mm 1 m/s 764 mmHg 87%
    21:00 -7°C° 0 mm 1 m/s 764 mmHg 85%
    22:00 -7°C° 0 mm 1 m/s 764 mmHg 84%
    23:00 -8°C° 0 mm 1 m/s 764 mmHg 82%

    2 Martie, Vineri

    Timp Temperatura Precipitaţii Vânt Presiune Umiditate
    00:00 -8°C° 0 mm 1 m/s 763 mmHg 81%
    01:00 -7°C° 0 mm 1 m/s 763 mmHg 80%
    02:00 -7°C° 0 mm 1 m/s 763 mmHg 79%
    03:00 -7°C° 0 mm 1 m/s 763 mmHg 78%
    04:00 -7°C° 0 mm 1 m/s 762 mmHg 78%
    05:00 -7°C° 0 mm 1 m/s 762 mmHg 77%
    06:00 -6°C° 0 mm 1 m/s 762 mmHg 79%
    07:00 -4°C° 0 mm 1 m/s 762 mmHg 81%
    08:00 -3°C° 0 mm 1 m/s 761 mmHg 82%
    09:00 -1°C° 0 mm 1 m/s 761 mmHg 84%
    10:00 0°C° 0 mm 1 m/s 761 mmHg 86%
    11:00 +2°C° 0 mm 1 m/s 761 mmHg 88%
    12:00 +2°C° 0 mm 1 m/s 760 mmHg 91%
    13:00 +3°C° 0 mm 1 m/s 760 mmHg 95%
    14:00 +3°C° 0 mm 1 m/s 759 mmHg 98%
    15:00 +2°C° 0 mm 2 m/s 759 mmHg 98%
    16:00 +2°C° 0 mm 2 m/s 759 mmHg 98%
    17:00 +2°C° 0 mm 2 m/s 758 mmHg 98%
    18:00 +1°C° 0 mm 2 m/s 758 mmHg 96%
    19:00 +1°C° 0 mm 2 m/s 758 mmHg 94%
    20:00 -1°C° 0 mm 2 m/s 758 mmHg 92%
    21:00 +1°C° 0 mm 2 m/s 758 mmHg 92%
    22:00 +1°C° 0 mm 2 m/s 758 mmHg 92%
    23:00 +1°C° 0 mm 2 m/s 758 mmHg 91%
    Arată mai mult